This is the latest recevied weather packets stored in our database for station/object N4TLC. If no packets are shown the sender has not sent any weather packets the latest 1 day(s).
| Time | Temp. | Humidity | Pressure | Rain* | Wind** | Luminosity | Snow |
|---|---|---|---|---|---|---|---|
| 1778035384 | 20° C | 48% | 1016.2 hPa | 0 mm | 1.34 m/s, 138° | 0 W/m² | - |
| 1778035080 | 20° C | 48% | 1016.3 hPa | 0 mm | 1.34 m/s, 144° | 0 W/m² | - |
| 1778034777 | 20.56° C | 48% | 1016.4 hPa | 0 mm | 0.89 m/s, 121° | 0 W/m² | - |
| 1778034473 | 20.56° C | 48% | 1016.3 hPa | 0 mm | 0.89 m/s, 140° | 0 W/m² | - |
| 1778034172 | 20.56° C | 48% | 1016.2 hPa | 0 mm | 0.89 m/s, 132° | 0 W/m² | - |
| 1778033870 | 20.56° C | 47% | 1016.4 hPa | 0 mm | 1.34 m/s, 150° | 0 W/m² | - |
| 1778033566 | 20.56° C | 47% | 1016.3 hPa | 0 mm | 0.89 m/s, 143° | 0 W/m² | - |
| 1778033263 | 21.11° C | 46% | 1016.2 hPa | 0 mm | 0.89 m/s, 138° | 0 W/m² | - |
| 1778032961 | 21.11° C | 46% | 1016.1 hPa | 0 mm | 1.34 m/s, 132° | 0 W/m² | - |
| 1778032658 | 21.11° C | 46% | 1016.3 hPa | 0 mm | 0.89 m/s, 122° | 0 W/m² | - |
| 1778032356 | 21.11° C | 46% | 1016.3 hPa | 0 mm | 1.34 m/s, 147° | 0 W/m² | - |
| 1778032052 | 21.11° C | 46% | 1016 hPa | 0 mm | 1.34 m/s, 148° | 0 W/m² | - |
| 1778031749 | 21.11° C | 46% | 1016 hPa | 0 mm | 1.34 m/s, 131° | 0 W/m² | - |
| 1778031446 | 21.67° C | 45% | 1016.1 hPa | 0 mm | 1.34 m/s, 134° | 0 W/m² | - |
| 1778031143 | 21.67° C | 45% | 1016.1 hPa | 0 mm | 1.34 m/s, 148° | 0 W/m² | - |
| 1778030839 | 21.67° C | 45% | 1016 hPa | 0 mm | 0.89 m/s, 140° | 0 W/m² | - |
| 1778030536 | 21.67° C | 45% | 1015.9 hPa | 0 mm | 0.89 m/s, 135° | 0 W/m² | - |
| 1778030234 | 21.67° C | 44% | 1016 hPa | 0 mm | 1.34 m/s, 139° | 0 W/m² | - |
| 1778029930 | 21.67° C | 44% | 1015.9 hPa | 0 mm | 0.89 m/s, 139° | 0 W/m² | - |
| 1778029628 | 22.22° C | 44% | 1015.9 hPa | 0 mm | 1.34 m/s, 144° | 0 W/m² | - |
| 1778029325 | 22.22° C | 43% | 1015.8 hPa | 0 mm | 0.89 m/s, 144° | 0 W/m² | - |
| 1778029022 | 22.22° C | 43% | 1015.7 hPa | 0 mm | 0.89 m/s, 144° | 0 W/m² | - |
| 1778028719 | 22.22° C | 42% | 1015.8 hPa | 0 mm | 1.34 m/s, 136° | 0 W/m² | - |
| 1778028415 | 22.78° C | 42% | 1015.7 hPa | 0 mm | 0.45 m/s, 145° | 0 W/m² | - |
| 1778028113 | 22.78° C | 42% | 1015.6 hPa | 0 mm | 0.89 m/s, 152° | 0 W/m² | - |
* Rain latest hour (hover to see other rain measurements)
** Current wind speed in m/s (hover to see current wind gust speed)